POPACS 1

Last updated on Wed Nov 20 2024 00:03:37 GMT+0000 (Coordinated Universal Time)

1 39268U 13055D 24324.42873543 .00056258 65913-7 78059-3 0 9992 2 39268 80.9832 330.7067 0335754 306.4830 50.5885 15.11774764583827
UTC large
Height (km)
Speed (km/s)
/
Latitude / Longitude
Inclination (degrees)
Orbital Period (minutes)
Azimuth
Elevation
Range (km)
Doppler Factor

Next 0 passes for location: London (51.5072 / 0.1276)

Sorry there are no passes over London.